[[{"header":{"parameterUnit":"m.s-1","parameterCategory":1,"la1":30.2991,"la2":30.254,"lo1":-89.0895,"lo2":-89.0444,"dy":0.0017,"dx":0.0017,"nx":28,"ny":28,"refTime":"2024-06-13T21:00:00:Z","depth":0,"parameterNumber":2,"parameterNumberName":"U-component_of_WINDS"},"data":[0,0,0,0,0,0,0,0,0,0,0,0,0,0,0,0,0,0,0,0,0,0,0,0,0,0,0,0,0,0,0,0,0,0,0,0,0,0,0,0,0,0,0,0,0,0,0,0,0,0,0,0,0,0,0,0,0,0,-2.0462,-2.0462,0,-2.0495,-2.0495,-2.0496,-2.0446,-2.0444,-2.0442,-2.0441,-2.0472,-2.0475,-2.0477,0,0,0,0,0,0,0,0,0,0,0,0,0,-2.0353,-2.0355,-2.0462,-2.0462,-2.0462,-2.0495,-2.0495,-2.0496,-2.0446,-2.0444,-2.0442,-2.044,-2.0471,-2.0474,-2.0477,0,0,0,0,0,0,0,0,0,0,0,0,0,-2.0395,-2.0356,-2.0462,-2.0442,-2.044,-2.0495,-2.0495,-2.0496,-2.0446,-2.0444,-2.0441,-2.0439,-2.047,-2.0474,-2.0478,-2.0552,0,0,-2.0489,-2.049,0,0,0,0,0,0,0,0,-2.0392,-2.0399,-2.0444,-2.0443,-2.0442,-2.0464,-2.0468,-2.0515,-2.0447,-2.0444,-2.0441,-2.0438,-2.0471,-2.0475,-2.0486,-2.0554,-2.0555,-2.0489,-2.0491,-2.0493,-2.0494,0,0,0,0,0,0,0,-2.039,-2.0397,-2.0475,-2.0445,-2.0443,-2.043,-2.0433,-2.0477,-2.0472,-2.0444,-2.0441,-2.0445,-2.047,-2.0483,-2.0487,-2.0556,-2.0489,-2.0492,-2.0495,-2.0496,-2.0687,-2.069,0,0,0,0,0,0,-2.0389,-2.0395,-2.0474,-2.0476,-2.041,-2.0434,-2.0438,-2.0459,-2.0471,-2.047,-2.0447,-2.0443,-2.0478,-2.0483,-2.0488,-2.0578,-2.0493,-2.0496,-2.0498,-2.0685,-2.0688,-2.0691,0,0,0,0,0,0,-2.0387,-2.0397,-2.0472,-2.0434,-2.0443,-2.0439,-2.0463,-2.0461,-2.0474,-2.0474,-2.0472,-2.0462,-2.0476,-2.0483,-2.0537,-2.0578,-2.0498,-2.0501,-2.0681,-2.0686,-2.069,-2.0758,0,0,0,0,0,0,-2.0384,-2.0396,-2.0425,-2.0435,-2.0445,-2.0522,-2.0466,-2.0464,-2.0481,-2.0475,-2.0487,-2.0486,-2.0475,-2.0532,-2.0541,-2.0582,-2.0504,-2.0678,-2.0683,-2.0688,-2.0752,-2.0764,-2.0774,0,0,0,0,0,-2.0381,-2.0442,-2.0427,-2.0437,-2.0481,-2.0524,-2.053,-2.0516,-2.0484,-2.0513,-2.0513,-2.0486,-2.0572,-2.0538,-2.0548,-2.059,-2.0675,-2.0682,-2.0688,-2.0747,-2.0761,-2.0774,0,0,0,0,0,0,-2.0436,-2.0443,-2.0426,-2.0493,-2.0509,-2.0516,-2.0552,-2.0532,-2.0556,-2.0549,-2.053,-2.0533,-2.0592,-2.0596,-2.0558,-2.0664,-2.0618,-2.0627,-2.066,-2.0673,-2.0684,-2.0683,-2.0507,0,0,0,0,0,-2.0456,-2.0491,-2.0495,-2.0553,-2.0562,-2.0556,-2.0574,-2.0562,-2.0577,-2.0583,-2.0587,-2.0602,-2.0632,-2.0653,-2.068,-2.0751,-2.0754,-2.0785,-2.0797,-2.0806,-2.0814,-2.0854,-2.0868,-2.0712,-2.0712,-2.0712,0,0,-2.0497,-2.0506,-2.0529,-2.0565,-2.0576,-2.0612,-2.0562,-2.0602,-2.0629,-2.0589,-2.0642,-2.0645,-2.066,-2.0724,-2.0752,-2.0729,-2.0857,-2.0814,-2.0821,-2.0825,-2.0862,-2.0877,-2.089,-2.0717,-2.0716,-2.0715,0,0,-2.0593,-2.0602,-2.0653,-2.0665,-2.0682,-2.0677,-2.069,-2.07,-2.0701,-2.0754,-2.0725,-2.0756,-2.0808,-2.0821,-2.0835,-2.0935,-2.0912,-2.0945,-2.1004,-2.1042,-2.1055,-2.1066,-2.1103,-2.1117,-2.0953,-2.0953,-2.0953,0,-2.0642,-2.0697,-2.0681,-2.0725,-2.0742,-2.0707,-2.0759,-2.0771,-2.0796,-2.0808,-2.0782,-2.0848,-2.0856,-2.0923,-2.0948,-2.0959,-2.0973,-2.0944,-2.1054,-2.1065,-2.1075,-2.1111,-2.1125,-2.0957,-2.0956,-2.0956,-2.0955,0,-2.0758,-2.0797,-2.0835,-2.0862,-2.0883,-2.093,-2.0921,-2.0944,-2.093,-2.0928,-2.0983,-2.0991,-2.1021,-2.1035,-2.1021,-2.1101,-2.1086,-2.1058,-2.1011,-2.1094,-2.1128,-2.1141,-2.0963,-2.0961,-2.096,-2.0959,0,0,-2.089,-2.0908,-2.0923,-2.0935,-2.0952,-2.0981,-2.1026,-2.1057,-2.1078,-2.1096,-2.1134,-2.1179,-2.1153,-2.1169,-2.1155,-2.1189,-2.1271,-2.1156,-2.1157,-2.1179,-2.1361,-2.1385,-2.1401,-2.1255,-2.1257,-2.1259,-2.1361,0,-2.0987,-2.1067,-2.1054,-2.1132,-2.1168,-2.1136,-2.1175,-2.119,-2.1189,-2.1219,-2.1217,-2.1251,-2.1213,-2.1223,-2.1254,-2.1255,-2.1308,-2.1247,-2.1291,-2.1293,-2.1291,-2.1418,-2.1443,-2.1538,-2.1374,-2.1376,-2.1377,0,-2.1111,-2.1136,-2.1217,-2.123,-2.1244,-2.1281,-2.1308,-2.1337,-2.1352,-2.1349,-2.1367,-2.1348,-2.1393,-2.1345,-2.1408,-2.1366,-2.1383,-2.1386,-2.1389,-2.1395,-2.1342,-2.1429,-2.1568,-2.1584,-2.1397,-2.1396,-2.1394,0,-2.1202,-2.1255,-2.1311,-2.1323,-2.1338,-2.1364,-2.1372,-2.1385,-2.1404,-2.1427,-2.144,-2.1467,-2.1483,-2.1505,-2.1494,-2.1459,-2.1559,-2.1509,-2.1559,-2.1559,-2.1583,-2.1582,-2.1729,-2.159,-2.159,-2.159,-2.1589,0,-2.1313,-2.1364,-2.1353,-2.1388,-2.1445,-2.1429,-2.1485,-2.1489,-2.1501,-2.1536,-2.1508,-2.1541,-2.1523,-2.1555,-2.1546,-2.1601,-2.1607,-2.1606,-2.1604,-2.161,-2.1611,-2.1623,-2.1617,-2.1593,-2.1593,-2.1592,-2.1591,0,-2.1425,-2.1419,-2.1479,-2.1489,-2.1492,-2.1534,-2.1542,-2.1575,-2.1572,-2.1616,-2.1626,-2.1621,-2.1657,-2.1648,-2.1686,-2.168,-2.175,-2.1737,-2.1745,-2.1743,-2.1794,-2.179,-2.1956,-2.1977,-2.1822,-2.1824,-2.1825,0,-2.1497,-2.1537,-2.1551,-2.1574,-2.1584,-2.1619,-2.1639,-2.1624,-2.1646,-2.1667,-2.1698,-2.1731,-2.1758,-2.1817,-2.1816,-2.1846,-2.1836,-2.1892,-2.184,-2.1846,-2.1839,-2.1838,-2.1843,-2.1903,-2.1904,-2.1906,-2.1907,0,-2.1627,-2.1623,-2.1653,-2.1684,-2.1709,-2.1731,-2.1751,-2.177,-2.1757,-2.1783,-2.182,-2.1841,-2.1881,-2.1915,-2.1943,-2.1949,-2.1927,-2.1923,-2.1936,-2.1945,-2.1949,-2.195,-2.1776,-2.192,-2.1918,-2.1918,-2.1917,-2.1916,-2.1723,-2.1758,-2.1774,-2.181,-2.1823,-2.1843,-2.1875,-2.1876,-2.1907,-2.194,-2.1928,-2.1971,-2.1986,-2.2021,-2.2031,-2.2064,-2.2043,-2.2062,-2.2067,-2.2072,-2.208,-2.1942,-2.2068,-2.2068,-2.2068,-2.2067,-2.2067,0,-2.1854,-2.1863,-2.1896,-2.1926,-2.1954,-2.193,-2.1951,-2.1976,-2.2014,-2.203,-2.2057,-2.2101,-2.2134,-2.2136,-2.2167,-2.2194,-2.2184,-2.2202,-2.2202,-2.2204,-2.2096,-2.2082,-2.221,-2.221,-2.221,-2.221,-2.221,-2.221,-2.1926,-2.1983,-2.1981,-2.2045,-2.2053,-2.2096,-2.211,-2.2128,-2.2141,-2.2191,-2.2219,-2.2221,-2.2232,-2.2263,-2.2293,-2.2293,-2.2306,-2.2329,-2.2326,-2.2225,-2.2211,-2.2198,-2.2185,-2.2332,-2.2332,-2.2431,-2.2432,-2.2433]},{"header":{"parameterUnit":"m.s-1","parameterCategory":1,"la1":30.2991,"la2":30.254,"lo1":-89.0895,"lo2":-89.0444,"dy":0.0017,"dx":0.0017,"nx":28,"ny":28,"refTime":"2024-06-13T21:00:00:Z","depth":0,"parameterNumber":3,"parameterNumberName":"V-component_of_WINDS"},"data":[0,0,0,0,0,0,0,0,0,0,0,0,0,0,0,0,0,0,0,0,0,0,0,0,0,0,0,0,0,0,0,0,0,0,0,0,0,0,0,0,0,0,0,0,0,0,0,0,0,0,0,0,0,0,0,0,0,0,-1.8411,-1.8412,0,-1.8424,-1.8424,-1.8424,-1.8388,-1.8386,-1.8385,-1.8384,-1.8398,-1.8399,-1.84,0,0,0,0,0,0,0,0,0,0,0,0,0,-1.8356,-1.8357,-1.8411,-1.8412,-1.8412,-1.8424,-1.8424,-1.8424,-1.8388,-1.8386,-1.8385,-1.8384,-1.8397,-1.8399,-1.84,0,0,0,0,0,0,0,0,0,0,0,0,0,-1.8375,-1.8357,-1.8411,-1.8395,-1.8394,-1.8424,-1.8424,-1.8424,-1.8388,-1.8386,-1.8385,-1.8383,-1.8397,-1.8399,-1.8401,-1.8448,0,0,-1.8407,-1.8408,0,0,0,0,0,0,0,0,-1.8374,-1.8377,-1.8397,-1.8396,-1.8395,-1.8402,-1.8409,-1.8432,-1.8388,-1.839,-1.8384,-1.8382,-1.8401,-1.8402,-1.8408,-1.8448,-1.8449,-1.8407,-1.8409,-1.8409,-1.841,0,0,0,0,0,0,0,-1.8373,-1.8376,-1.8416,-1.8397,-1.8396,-1.8387,-1.8388,-1.8413,-1.8405,-1.839,-1.8387,-1.8389,-1.84,-1.8406,-1.8408,-1.8449,-1.8407,-1.8409,-1.841,-1.8411,-1.8528,-1.853,0,0,0,0,0,0,-1.8374,-1.8376,-1.8416,-1.8417,-1.838,-1.8389,-1.839,-1.8402,-1.8404,-1.8403,-1.8391,-1.8387,-1.8404,-1.8406,-1.8409,-1.8465,-1.8409,-1.8411,-1.8413,-1.8526,-1.8529,-1.8531,0,0,0,0,0,0,-1.8372,-1.8377,-1.8415,-1.8395,-1.84,-1.8392,-1.8405,-1.8403,-1.841,-1.8405,-1.8403,-1.8399,-1.8402,-1.8406,-1.8438,-1.8465,-1.8412,-1.8414,-1.8524,-1.8527,-1.853,-1.8577,0,0,0,0,0,0,-1.8371,-1.8377,-1.8395,-1.8396,-1.8401,-1.8445,-1.8407,-1.8404,-1.8413,-1.8409,-1.8413,-1.8411,-1.8401,-1.8435,-1.844,-1.8467,-1.8416,-1.8522,-1.8526,-1.8529,-1.8573,-1.8581,-1.8588,0,0,0,0,0,-1.8369,-1.8408,-1.8396,-1.8401,-1.8423,-1.8447,-1.8449,-1.8437,-1.8416,-1.8434,-1.843,-1.8411,-1.846,-1.8439,-1.8444,-1.8472,-1.852,-1.8525,-1.8529,-1.857,-1.8579,-1.8587,0,0,0,0,0,0,-1.8411,-1.8408,-1.8395,-1.8435,-1.8441,-1.844,-1.8463,-1.8447,-1.846,-1.8456,-1.8439,-1.844,-1.8476,-1.8476,-1.8453,-1.8517,-1.8487,-1.8492,-1.8516,-1.8525,-1.8532,-1.8532,-1.8418,0,0,0,0,0,-1.8424,-1.8444,-1.844,-1.8476,-1.848,-1.8471,-1.8481,-1.847,-1.8476,-1.8479,-1.8478,-1.8484,-1.8501,-1.8513,-1.8528,-1.8572,-1.8573,-1.8593,-1.86,-1.8607,-1.8612,-1.8636,-1.8646,-1.8544,-1.8544,-1.8544,0,0,-1.8453,-1.8454,-1.8467,-1.8484,-1.8488,-1.8509,-1.8473,-1.8497,-1.8512,-1.8482,-1.8513,-1.8513,-1.8519,-1.8558,-1.8574,-1.8559,-1.864,-1.8612,-1.8617,-1.8619,-1.8641,-1.8651,-1.866,-1.8547,-1.8547,-1.8546,0,0,-1.8517,-1.8519,-1.855,-1.8554,-1.856,-1.8553,-1.856,-1.8562,-1.856,-1.8591,-1.8569,-1.8587,-1.8616,-1.8621,-1.8628,-1.8693,-1.8676,-1.8698,-1.8737,-1.8761,-1.8769,-1.8776,-1.88,-1.8809,-1.8703,-1.8703,-1.8703,0,-1.8552,-1.8583,-1.8567,-1.8592,-1.8601,-1.8574,-1.8605,-1.8609,-1.862,-1.8627,-1.8609,-1.8645,-1.8647,-1.8687,-1.8703,-1.8708,-1.8717,-1.8699,-1.8769,-1.8776,-1.8782,-1.8805,-1.8814,-1.8706,-1.8705,-1.8705,-1.8705,0,-1.8627,-1.8648,-1.8672,-1.8683,-1.8694,-1.8721,-1.871,-1.8723,-1.8711,-1.8706,-1.8738,-1.8739,-1.8755,-1.8763,-1.8751,-1.8801,-1.8792,-1.8771,-1.8741,-1.8795,-1.8816,-1.8825,-1.871,-1.8709,-1.8708,-1.8707,0,0,-1.8719,-1.872,-1.873,-1.8734,-1.8738,-1.8755,-1.8781,-1.8795,-1.8807,-1.8815,-1.8837,-1.8862,-1.8843,-1.8851,-1.8839,-1.886,-1.8913,-1.8837,-1.8837,-1.8853,-1.8969,-1.8986,-1.8996,-1.89,-1.8902,-1.8903,-1.8969,0,-1.8783,-1.8829,-1.8815,-1.8861,-1.8881,-1.8855,-1.8878,-1.8883,-1.8879,-1.8895,-1.889,-1.8909,-1.8882,-1.8887,-1.8906,-1.8902,-1.8936,-1.8897,-1.8922,-1.8923,-1.8924,-1.9007,-1.9025,-1.9087,-1.8977,-1.8979,-1.898,0,-1.8865,-1.8876,-1.8924,-1.8925,-1.8932,-1.8954,-1.8966,-1.8981,-1.8986,-1.8982,-1.899,-1.8974,-1.9,-1.8968,-1.9004,-1.8977,-1.8986,-1.8986,-1.8988,-1.8992,-1.8957,-1.9015,-1.9106,-1.9117,-1.8992,-1.8991,-1.899,0,-1.893,-1.8956,-1.8989,-1.8993,-1.8994,-1.901,-1.9011,-1.9014,-1.9024,-1.9034,-1.904,-1.9054,-1.9062,-1.9072,-1.9061,-1.9038,-1.9099,-1.9065,-1.9097,-1.9097,-1.9113,-1.9113,-1.9209,-1.9115,-1.9115,-1.9115,-1.9115,0,-1.9004,-1.9035,-1.9018,-1.9038,-1.9072,-1.9055,-1.9089,-1.9087,-1.909,-1.9109,-1.9087,-1.9105,-1.9088,-1.9105,-1.9096,-1.9128,-1.9131,-1.9128,-1.9126,-1.9132,-1.9133,-1.9139,-1.9136,-1.9117,-1.9117,-1.9116,-1.9116,0,-1.9083,-1.9073,-1.9107,-1.9105,-1.9105,-1.913,-1.9128,-1.9147,-1.914,-1.9165,-1.917,-1.9161,-1.918,-1.9168,-1.9187,-1.9181,-1.9223,-1.9214,-1.9222,-1.922,-1.9254,-1.9251,-1.936,-1.9374,-1.9269,-1.927,-1.9271,0,-1.9133,-1.9156,-1.9156,-1.9168,-1.917,-1.9189,-1.9199,-1.9182,-1.9193,-1.92,-1.9218,-1.9235,-1.9248,-1.9279,-1.9274,-1.9289,-1.9281,-1.9318,-1.9283,-1.9288,-1.9284,-1.9283,-1.9286,-1.9326,-1.9327,-1.9328,-1.9329,0,-1.9222,-1.9216,-1.9231,-1.9244,-1.9256,-1.9266,-1.9274,-1.9284,-1.9268,-1.9281,-1.93,-1.931,-1.9329,-1.9347,-1.9359,-1.936,-1.9342,-1.9339,-1.9348,-1.9355,-1.936,-1.9359,-1.9244,-1.9337,-1.9336,-1.9336,-1.9335,-1.9335,-1.9289,-1.9309,-1.9313,-1.933,-1.9334,-1.9342,-1.9359,-1.9355,-1.937,-1.9385,-1.9374,-1.9397,-1.94,-1.9415,-1.9418,-1.9436,-1.9421,-1.9433,-1.9436,-1.944,-1.9446,-1.9355,-1.9438,-1.9437,-1.9437,-1.9437,-1.9437,0,-1.9379,-1.938,-1.9396,-1.9408,-1.9421,-1.9402,-1.9409,-1.9422,-1.9443,-1.9447,-1.946,-1.9482,-1.9499,-1.9494,-1.9509,-1.9524,-1.9516,-1.9529,-1.9529,-1.9529,-1.9457,-1.9449,-1.9535,-1.9535,-1.9535,-1.9535,-1.9535,-1.9535,-1.9428,-1.9461,-1.9455,-1.9489,-1.9489,-1.9512,-1.9518,-1.9524,-1.9528,-1.9554,-1.9567,-1.9564,-1.9565,-1.958,-1.9594,-1.9592,-1.9599,-1.9615,-1.9611,-1.9544,-1.9534,-1.9525,-1.9518,-1.9617,-1.9617,-1.9682,-1.9683,-1.9683]}]]